Regional Weather Roundup
Issued by NWS

Home | Current Version | Previous Version | Graphics & Text | Print | Product List | Glossary On
Versions: 1 2 3 4 5 6 7 8 9 10 11 12 13 14 15 16 17 18 19 20 21 22 23 24 25 26 27 28 29 30 31 32 33 34 35 36 37 38 39 40 41 42 43 44 45 46 47 48 49 50
000
ASUS43 KLMK 190002
RWRKY
KENTUCKY REGIONAL WEATHER ROUNDUP
NATIONAL WEATHER SERVICE LOUISVILLE KY
700 PM EST THU JAN 18 2018

NOTE "FAIR" INDICATES FEW OR NO CLOUDS BELOW 12,000 FEET
WITH NO SIGNIFICANT WEATHER AND/OR OBSTRUCTIONS TO VISIBILITY.

KYZ001>023-026-027-061>063-070>075-190100-
WESTERN AND SOUTH CENTRAL KENTUCKY

CITY           SKY/WX    TMP DP  RH WIND       PRES   REMARKS
PADUCAH        FAIR      26  12  55 SW5       30.33S WCI  20
HENDERSON      FAIR      27  14  58 S13       30.30F WCI  16
OWENSBORO      FAIR      24  13  62 S9        30.32S WCI  14
HOPKINSVILLE   FAIR      29  11  45 S7        30.33F WCI  22
BOWLING GREEN  FAIR      25  15  66 CALM      30.35F
GLASGOW        NOT AVBL
$$

KYZ024-025-028>034-038-045-046-053-190100-
NORTH CENTRAL KENTUCKY

CITY           SKY/WX    TMP DP  RH WIND       PRES   REMARKS
LOUISVILLE/SDF FAIR      30  13  49 S8        30.30S WCI  22
LOUISVILLE/LOU FAIR      29  14  53 S9        30.31R WCI  20
FORT KNOX      CLEAR     27  12  54 S10       30.23F WCI  17
$$

KYZ035>037-039>044-047>052-055>060-089>105-190100-
NORTHEAST KENTUCKY

CITY           SKY/WX    TMP DP  RH WIND       PRES   REMARKS
LEXINGTON      FAIR      25  10  53 S10       30.29S WCI  15
COVINGTON      FAIR      27  14  58 S8        30.23R WCI  19
FRANKFORT      FAIR      25  11  55 SW9       30.28S WCI  15
$$

KYZ054-064>069-076>088-106>120-190100-
SOUTHEAST KENTUCKY

CITY           SKY/WX    TMP DP  RH WIND       PRES   REMARKS
JACKSON        FAIR      26  12  55 VRB5      30.28F WCI  20
LONDON         FAIR      24  15  68 CALM      30.32S
SOMERSET       NOT AVBL
MIDDLESBORO    FAIR      25  17  71 CALM      30.35S
MONTICELLO     FAIR      18  10  71 VRB6      30.37R WCI  10
$$





USA.gov is the U.S. government's official web portal to all federal, state and local government web resources and services.